| time (UTC) | temp F | wind direction | speed knots | gust knots | rain 1hr in | rain 24hr in | rain mn in | humidity % | barometer mb |
| 20260510055048 | 73 | 0 | 0.0 | 0.0 | 0.00 | 0.00 | 0.00 | 83 | 1011.4 |
| 20260510054554 | 73 | 0 | 0.0 | 0.0 | 0.00 | 0.00 | 0.00 | 84 | 1011.5 |
| 20260510054046 | 73 | 0 | 0.0 | 0.0 | 0.00 | 0.00 | 0.00 | 86 | 1011.5 |
| 20260510053545 | 73 | 0 | 0.0 | 0.0 | 0.00 | 0.00 | 0.00 | 86 | 1011.5 |
| 20260510053100 | 73 | 0 | 0.0 | 0.0 | 0.00 | 0.00 | 0.00 | 85 | 1011.6 |
| 20260510052545 | 74 | 0 | 0.0 | 0.0 | 0.00 | 0.00 | 0.00 | 86 | 1011.5 |
| 20260510052045 | 74 | 0 | 0.0 | 0.0 | 0.00 | 0.00 | 0.00 | 86 | 1011.6 |
| 20260510051552 | 74 | 0 | 0.0 | 0.0 | 0.00 | 0.00 | 0.00 | 85 | 1011.6 |
| 20260510051046 | 74 | 0 | 0.0 | 0.0 | 0.00 | 0.00 | 0.00 | 85 | 1011.5 |
| 20260510050545 | 74 | 0 | 0.0 | 0.0 | 0.00 | 0.00 | 0.00 | 85 | 1011.5 |
| 20260510050057 | 74 | 0 | 0.0 | 0.0 | 0.00 | 0.00 | 0.00 | 85 | 1011.6 |
| 20260510045545 | 75 | 0 | 0.0 | 0.0 | 0.00 | 0.00 | 0.00 | 84 | 1011.5 |
| 20260510045047 | 75 | 0 | 0.0 | 0.0 | 0.00 | 0.00 | 0.00 | 84 | 1011.5 |
| 20260510044558 | 75 | 0 | 0.0 | 0.0 | 0.00 | 0.00 | 0.00 | 85 | 1011.5 |
| 20260510044046 | 75 | 0 | 0.0 | 0.9 | 0.00 | 0.00 | 0.00 | 85 | 1011.4 |
| 20260510043547 | 75 | 0 | 0.0 | 0.9 | 0.00 | 0.00 | 0.00 | 85 | 1011.4 |
| 20260510043108 | 75 | 0 | 0.0 | 0.9 | 0.00 | 0.00 | 0.00 | 85 | 1011.5 |
| 20260510042545 | 75 | 0 | 0.0 | 0.0 | 0.00 | 0.00 | 0.00 | 85 | 1011.4 |
| 20260510042045 | 76 | 0 | 0.0 | 0.0 | 0.00 | 0.00 | 0.00 | 85 | 1011.3 |
| 20260510041558 | 76 | 0 | 0.0 | 0.0 | 0.00 | 0.00 | 0.00 | 84 | 1011.2 |
| 20260510041045 | 76 | 0 | 0.0 | 0.0 | 0.00 | 0.00 | 0.00 | 84 | 1011.4 |
| 20260510040546 | 76 | 0 | 0.0 | 0.0 | 0.00 | 0.00 | 0.00 | 83 | 1011.3 |
| 20260510040059 | 76 | 0 | 0.0 | 0.0 | 0.00 | 0.00 | 0.00 | 83 | 1011.2 |
| 20260510035545 | 76 | 0 | 0.0 | 0.0 | 0.00 | 0.00 | 0.00 | 83 | 1011.1 |
| 20260510035045 | 77 | 0 | 0.0 | 0.0 | 0.00 | 0.00 | 0.00 | 82 | 1011.1 |
| 20260510034559 | 77 | 0 | 0.0 | 0.0 | 0.00 | 0.00 | 0.00 | 82 | 1011.1 |
| 20260510034046 | 77 | 0 | 0.0 | 0.0 | 0.00 | 0.00 | 0.00 | 82 | 1011.0 |
| 20260510033547 | 77 | 0 | 0.0 | 0.0 | 0.00 | 0.00 | 0.00 | 81 | 1011.0 |
| 20260510033126 | 77 | 0 | 0.0 | 0.0 | 0.00 | 0.00 | 0.00 | 82 | 1010.9 |
| 20260510032547 | 78 | 0 | 0.0 | 0.0 | 0.00 | 0.00 | 0.00 | 81 | 1010.8 |
| 20260510032045 | 78 | 0 | 0.0 | 0.0 | 0.00 | 0.00 | 0.00 | 80 | 1010.8 |
| 20260510031558 | 78 | 0 | 0.0 | 0.0 | 0.00 | 0.00 | 0.00 | 80 | 1010.7 |
| 20260510031045 | 79 | 0 | 0.0 | 0.0 | 0.00 | 0.00 | 0.00 | 80 | 1010.7 |
| 20260510030545 | 79 | 0 | 0.0 | 0.0 | 0.00 | 0.00 | 0.00 | 79 | 1010.7 |
| 20260510030057 | 79 | 0 | 0.0 | 0.0 | 0.00 | 0.00 | 0.00 | 79 | 1010.7 |
| 20260510025545 | 80 | 0 | 0.0 | 0.0 | 0.00 | 0.00 | 0.00 | 78 | 1010.6 |
| 20260510025046 | 80 | 0 | 0.0 | 0.0 | 0.00 | 0.00 | 0.00 | 78 | 1010.5 |
| 20260510024547 | 80 | 0 | 0.0 | 0.0 | 0.00 | 0.00 | 0.00 | 78 | 1010.4 |
| 20260510024047 | 80 | 0 | 0.0 | 0.9 | 0.00 | 0.00 | 0.00 | 78 | 1010.3 |
| 20260510023545 | 81 | 0 | 0.0 | 0.9 | 0.00 | 0.00 | 0.00 | 78 | 1010.2 |
| 20260510023048 | 81 | 0 | 0.0 | 0.0 | 0.00 | 0.00 | 0.00 | 77 | 1010.1 |
| 20260510022545 | 81 | 0 | 0.0 | 0.9 | 0.00 | 0.00 | 0.00 | 77 | 1010.1 |
| 20260510022047 | 81 | 0 | 0.0 | 0.9 | 0.00 | 0.00 | 0.00 | 77 | 1010.1 |
| 20260510021546 | 81 | 0 | 0.0 | 2.6 | 0.00 | 0.00 | 0.00 | 77 | 1010.0 |
| 20260510021044 | 81 | 0 | 0.0 | 2.6 | 0.00 | 0.00 | 0.00 | 77 | 1009.9 |
| 20260510020546 | 81 | 0 | 0.0 | 2.6 | 0.00 | 0.00 | 0.00 | 77 | 1009.9 |
| 20260510020049 | 81 | 0 | 0.0 | 2.6 | 0.00 | 0.00 | 0.00 | 77 | 1009.8 |
| 20260510015546 | 81 | 17 | 0.0 | 2.6 | 0.00 | 0.00 | 0.00 | 77 | 1009.8 |
| 20260510015046 | 81 | 0 | 0.0 | 1.7 | 0.00 | 0.00 | 0.00 | 76 | 1009.7 |
| 20260510014551 | 81 | 0 | 0.0 | 0.0 | 0.00 | 0.00 | 0.00 | 76 | 1009.7 |
| 20260510014045 | 82 | 0 | 0.0 | 0.0 | 0.00 | 0.00 | 0.00 | 75 | 1009.6 |
| 20260510013546 | 82 | 0 | 0.0 | 0.0 | 0.00 | 0.00 | 0.00 | 74 | 1009.5 |
| 20260510013046 | 82 | 0 | 0.0 | 0.0 | 0.00 | 0.00 | 0.00 | 74 | 1009.4 |
| 20260510012551 | 83 | 0 | 0.0 | 0.0 | 0.00 | 0.00 | 0.00 | 74 | 1009.4 |
| 20260510012045 | 83 | 0 | 0.0 | 2.6 | 0.00 | 0.00 | 0.00 | 73 | 1009.5 |
| 20260510011549 | 83 | 0 | 0.0 | 2.6 | 0.00 | 0.00 | 0.00 | 72 | 1009.3 |
| 20260510011048 | 84 | 0 | 0.0 | 1.7 | 0.00 | 0.00 | 0.00 | 72 | 1009.3 |
| 20260510010546 | 84 | 0 | 0.0 | 0.9 | 0.00 | 0.00 | 0.00 | 70 | 1009.3 |
| 20260510010051 | 84 | 0 | 0.0 | 1.7 | 0.00 | 0.00 | 0.00 | 70 | 1009.3 |
| 20260510005547 | 84 | 0 | 0.0 | 1.7 | 0.00 | 0.00 | 0.00 | 70 | 1009.3 |
| 20260510005047 | 84 | 0 | 0.0 | 1.7 | 0.00 | 0.00 | 0.00 | 70 | 1009.2 |
| 20260510004548 | 84 | 0 | 0.0 | 2.6 | 0.00 | 0.00 | 0.00 | 69 | 1009.2 |
| 20260510004045 | 84 | 0 | 0.0 | 2.6 | 0.00 | 0.00 | 0.00 | 69 | 1009.2 |
| 20260510003546 | 84 | 16 | 0.0 | 1.7 | 0.00 | 0.00 | 0.00 | 68 | 1009.0 |
| 20260510003048 | 84 | 16 | 0.0 | 0.9 | 0.00 | 0.00 | 0.00 | 68 | 1009.1 |
| 20260510002548 | 85 | 0 | 0.0 | 1.7 | 0.00 | 0.00 | 0.00 | 68 | 1009.1 |
| 20260510002045 | 85 | 0 | 0.0 | 0.9 | 0.00 | 0.00 | 0.00 | 67 | 1009.0 |
| 20260510001549 | 85 | 0 | 0.0 | 0.9 | 0.00 | 0.00 | 0.00 | 67 | 1008.9 |
| 20260510001046 | 85 | 0 | 0.0 | 2.6 | 0.00 | 0.00 | 0.00 | 67 | 1008.9 |
| 20260510000546 | 85 | 0 | 0.0 | 2.6 | 0.00 | 0.00 | 0.00 | 67 | 1008.9 |
| 20260509235545 | 85 | 0 | 0.0 | 1.7 | 0.00 | 0.00 | 0.00 | 65 | 1008.8 |
| 20260509235045 | 85 | 0 | 0.0 | 2.6 | 0.00 | 0.00 | 0.00 | 66 | 1008.7 |
| 20260509234600 | 86 | 0 | 0.0 | 2.6 | 0.00 | 0.00 | 0.00 | 65 | 1008.6 |
| 20260509234046 | 86 | 16 | 0.0 | 2.6 | 0.00 | 0.00 | 0.00 | 65 | 1008.6 |
| 20260509233546 | 86 | 16 | 0.0 | 2.6 | 0.00 | 0.00 | 0.00 | 64 | 1008.7 |
| 20260509233050 | 86 | 0 | 0.0 | 0.9 | 0.00 | 0.00 | 0.00 | 65 | 1008.6 |
| 20260509232545 | 86 | 0 | 0.0 | 2.6 | 0.00 | 0.00 | 0.00 | 63 | 1008.7 |
| 20260509232045 | 86 | 0 | 0.0 | 2.6 | 0.00 | 0.00 | 0.00 | 63 | 1008.6 |
| 20260509231553 | 86 | 0 | 0.0 | 2.6 | 0.00 | 0.00 | 0.00 | 64 | 1008.6 |
| 20260509231045 | 86 | 0 | 0.0 | 2.6 | 0.00 | 0.00 | 0.00 | 63 | 1008.6 |
| 20260509230546 | 87 | 16 | 0.0 | 2.6 | 0.00 | 0.00 | 0.00 | 63 | 1008.6 |
| 20260509230052 | 87 | 0 | 0.9 | 2.6 | 0.00 | 0.00 | 0.00 | 62 | 1008.6 |
| 20260509225546 | 87 | 0 | 0.0 | 1.7 | 0.00 | 0.00 | 0.00 | 63 | 1008.6 |
| 20260509225047 | 87 | 16 | 0.0 | 1.7 | 0.00 | 0.00 | 0.00 | 63 | 1008.6 |
| 20260509224556 | 87 | 16 | 0.0 | 1.7 | 0.00 | 0.00 | 0.00 | 59 | 1008.6 |
| 20260509224047 | 87 | 0 | 0.0 | 2.6 | 0.00 | 0.00 | 0.00 | 60 | 1008.6 |
| 20260509223548 | 87 | 0 | 0.0 | 2.6 | 0.00 | 0.00 | 0.00 | 60 | 1008.7 |
| 20260509223100 | 87 | 0 | 0.9 | 2.6 | 0.00 | 0.00 | 0.00 | 58 | 1008.6 |
| 20260509222549 | 86 | 0 | 0.0 | 1.7 | 0.00 | 0.00 | 0.00 | 58 | 1008.5 |
| 20260509222047 | 86 | 14 | 0.0 | 1.7 | 0.00 | 0.00 | 0.00 | 57 | 1008.6 |
| 20260509221557 | 86 | 0 | 0.0 | 1.7 | 0.00 | 0.00 | 0.00 | 57 | 1008.6 |
| 20260509221048 | 86 | 0 | 0.0 | 1.7 | 0.00 | 0.00 | 0.00 | 52 | 1008.5 |
| 20260509220546 | 86 | 0 | 0.0 | 1.7 | 0.00 | 0.00 | 0.00 | 52 | 1008.5 |
| 20260509220049 | 86 | 0 | 0.9 | 1.7 | 0.00 | 0.00 | 0.00 | 51 | 1008.5 |
| 20260509215548 | 86 | 0 | 0.0 | 1.7 | 0.00 | 0.00 | 0.00 | 54 | 1008.7 |
| 20260509215047 | 86 | 0 | 0.0 | 1.7 | 0.00 | 0.00 | 0.00 | 54 | 1008.5 |
| 20260509214551 | 85 | 14 | 0.0 | 1.7 | 0.00 | 0.00 | 0.00 | 57 | 1008.7 |
| 20260509214047 | 85 | 0 | 0.0 | 2.6 | 0.00 | 0.00 | 0.00 | 56 | 1008.8 |
| 20260509213547 | 85 | 14 | 0.0 | 2.6 | 0.00 | 0.00 | 0.00 | 57 | 1008.8 |
| 20260509213053 | 85 | 14 | 0.0 | 1.7 | 0.00 | 0.00 | 0.00 | 59 | 1008.9 |
| 20260509212549 | 85 | 14 | 0.0 | 2.6 | 0.00 | 0.00 | 0.00 | 60 | 1009.1 |
| 20260509212048 | 85 | 14 | 0.9 | 2.6 | 0.00 | 0.00 | 0.00 | 58 | 1009.0 |
| 20260509211554 | 85 | 10 | 0.0 | 2.6 | 0.00 | 0.00 | 0.00 | 59 | 1009.1 |
| 20260509211047 | 84 | 0 | 0.0 | 2.6 | 0.00 | 0.00 | 0.00 | 57 | 1009.2 |
| 20260509210547 | 84 | 0 | 0.0 | 3.5 | 0.00 | 0.00 | 0.00 | 59 | 1009.2 |
| 20260509205547 | 85 | 10 | 0.0 | 7.0 | 0.00 | 0.00 | 0.00 | 58 | 1009.3 |
| 20260509205051 | 85 | 14 | 2.6 | 6.1 | 0.00 | 0.00 | 0.00 | 59 | 1009.3 |
| 20260509204557 | 85 | 9 | 0.9 | 4.3 | 0.00 | 0.00 | 0.00 | 62 | 1009.3 |
| 20260509204048 | 85 | 18 | 1.7 | 4.3 | 0.00 | 0.00 | 0.00 | 61 | 1009.3 |
| 20260509203547 | 85 | 19 | 0.9 | 3.5 | 0.00 | 0.00 | 0.00 | 56 | 1009.4 |
| 20260509203055 | 85 | 22 | 0.0 | 3.5 | 0.00 | 0.00 | 0.00 | 57 | 1009.3 |
| 20260509202548 | 84 | 32 | 0.0 | 3.5 | 0.00 | 0.00 | 0.00 | 63 | 1009.4 |
| 20260509202048 | 84 | 0 | 0.0 | 2.6 | 0.00 | 0.00 | 0.00 | 63 | 1009.5 |
| 20260509201608 | 84 | 33 | 0.0 | 3.5 | 0.00 | 0.00 | 0.00 | 65 | 1009.6 |
| 20260509201047 | 84 | 33 | 0.9 | 3.5 | 0.00 | 0.00 | 0.00 | 68 | 1009.8 |
| 20260509200547 | 85 | 141 | 0.9 | 3.5 | 0.00 | 0.00 | 0.00 | 65 | 1010.0 |
| 20260509200107 | 86 | 34 | 0.0 | 4.3 | 0.00 | 0.00 | 0.00 | 65 | 1010.1 |
| 20260509195548 | 86 | 35 | 0.0 | 6.1 | 0.00 | 0.00 | 0.00 | 65 | 1010.0 |
| 20260509195048 | 87 | 74 | 0.9 | 6.1 | 0.00 | 0.00 | 0.00 | 63 | 1009.9 |
| 20260509194557 | 87 | 0 | 0.0 | 3.5 | 0.00 | 0.00 | 0.00 | 61 | 1009.9 |
| 20260509194045 | 87 | 0 | 0.0 | 1.7 | 0.00 | 0.00 | 0.00 | 66 | 1009.8 |
| 20260509193545 | 87 | 0 | 0.0 | 1.7 | 0.00 | 0.00 | 0.00 | 68 | 1009.7 |
| 20260509193053 | 86 | 0 | 0.0 | 1.7 | 0.00 | 0.00 | 0.00 | 67 | 1009.7 |
| 20260509192545 | 86 | 0 | 0.0 | 0.9 | 0.00 | 0.00 | 0.00 | 70 | 1009.7 |
| 20260509192045 | 86 | 0 | 0.0 | 1.7 | 0.00 | 0.00 | 0.00 | 69 | 1009.8 |
| 20260509191553 | 86 | 0 | 0.0 | 1.7 | 0.00 | 0.00 | 0.00 | 69 | 1009.8 |
| 20260509191044 | 86 | 18 | 0.0 | 2.6 | 0.00 | 0.00 | 0.00 | 70 | 1009.8 |
| 20260509190544 | 86 | 18 | 0.0 | 2.6 | 0.00 | 0.00 | 0.00 | 70 | 1009.9 |
| 20260509190051 | 86 | 18 | 0.0 | 1.7 | 0.00 | 0.00 | 0.00 | 73 | 1009.8 |
| 20260509185545 | 86 | 0 | 0.0 | 1.7 | 0.00 | 0.00 | 0.00 | 72 | 1010.0 |
| 20260509185044 | 86 | 0 | 0.0 | 1.7 | 0.00 | 0.00 | 0.00 | 70 | 1010.1 |
| 20260509184601 | 86 | 0 | 0.0 | 2.6 | 0.00 | 0.00 | 0.00 | 69 | 1010.1 |
| 20260509184045 | 86 | 0 | 0.0 | 2.6 | 0.00 | 0.00 | 0.00 | 68 | 1010.2 |
| 20260509183545 | 86 | 0 | 0.0 | 2.6 | 0.00 | 0.00 | 0.00 | 70 | 1010.3 |
| 20260509183052 | 86 | 18 | 0.0 | 3.5 | 0.00 | 0.00 | 0.00 | 70 | 1010.4 |
| 20260509182545 | 86 | 18 | 0.9 | 3.5 | 0.00 | 0.00 | 0.00 | 71 | 1010.6 |
| 20260509182045 | 85 | 18 | 0.0 | 1.7 | 0.00 | 0.00 | 0.00 | 75 | 1010.6 |
| 20260509181602 | 85 | 18 | 0.0 | 0.9 | 0.00 | 0.00 | 0.00 | 74 | 1010.7 |
| 20260509181046 | 85 | 0 | 0.0 | 1.7 | 0.00 | 0.00 | 0.00 | 72 | 1010.8 |
| 20260509180545 | 85 | 0 | 0.0 | 1.7 | 0.00 | 0.00 | 0.00 | 70 | 1010.9 |
| 20260509180053 | 85 | 18 | 0.0 | 2.6 | 0.00 | 0.00 | 0.00 | 71 | 1010.8 |
| 20260509175545 | 85 | 0 | 0.0 | 2.6 | 0.00 | 0.00 | 0.00 | 72 | 1010.9 |
| 20260509175045 | 85 | 0 | 0.0 | 2.6 | 0.00 | 0.00 | 0.00 | 72 | 1010.9 |
| 20260509174551 | 85 | 0 | 0.0 | 1.7 | 0.00 | 0.00 | 0.00 | 72 | 1011.0 |
| 20260509174045 | 85 | 0 | 0.0 | 2.6 | 0.00 | 0.00 | 0.00 | 73 | 1011.2 |
| 20260509173545 | 85 | 0 | 0.0 | 2.6 | 0.00 | 0.00 | 0.00 | 73 | 1011.2 |
| 20260509173104 | 85 | 18 | 0.9 | 2.6 | 0.00 | 0.00 | 0.00 | 74 | 1011.4 |
| 20260509172546 | 85 | 18 | 0.9 | 2.6 | 0.00 | 0.00 | 0.00 | 73 | 1011.4 |
| 20260509172046 | 84 | 18 | 0.9 | 2.6 | 0.00 | 0.00 | 0.00 | 74 | 1011.5 |
| 20260509171550 | 84 | 18 | 0.0 | 2.6 | 0.00 | 0.00 | 0.00 | 75 | 1011.5 |
| 20260509171044 | 84 | 0 | 0.0 | 1.7 | 0.00 | 0.00 | 0.00 | 75 | 1011.4 |
| 20260509170544 | 84 | 18 | 0.0 | 2.6 | 0.00 | 0.00 | 0.00 | 78 | 1011.4 |
| 20260509170049 | 83 | 0 | 0.0 | 3.5 | 0.00 | 0.00 | 0.00 | 78 | 1011.4 |
| 20260509165547 | 83 | 18 | 0.0 | 3.5 | 0.00 | 0.00 | 0.00 | 78 | 1011.4 |
| 20260509165048 | 83 | 18 | 0.0 | 3.5 | 0.00 | 0.00 | 0.00 | 80 | 1011.6 |
| 20260509164553 | 82 | 17 | 0.0 | 3.5 | 0.00 | 0.00 | 0.00 | 79 | 1011.5 |
| 20260509164045 | 82 | 0 | 0.9 | 3.5 | 0.00 | 0.00 | 0.00 | 79 | 1011.7 |
| 20260509163544 | 82 | 16 | 0.9 | 3.5 | 0.00 | 0.00 | 0.00 | 80 | 1011.6 |
| 20260509163052 | 81 | 0 | 0.0 | 2.6 | 0.00 | 0.00 | 0.00 | 83 | 1011.6 |
| 20260509162545 | 81 | 0 | 0.0 | 2.6 | 0.00 | 0.00 | 0.00 | 83 | 1011.5 |
| 20260509162048 | 80 | 0 | 0.0 | 2.6 | 0.00 | 0.00 | 0.00 | 84 | 1011.6 |
| 20260509161600 | 80 | 47 | 0.0 | 2.6 | 0.00 | 0.00 | 0.00 | 82 | 1011.6 |
| 20260509161044 | 80 | 0 | 0.0 | 1.7 | 0.00 | 0.00 | 0.00 | 85 | 1011.6 |
| 20260509160545 | 80 | 47 | 0.0 | 1.7 | 0.00 | 0.00 | 0.00 | 85 | 1011.6 |
| 20260509160053 | 79 | 0 | 0.0 | 1.7 | 0.00 | 0.00 | 0.00 | 86 | 1011.6 |
| 20260509155545 | 79 | 47 | 0.0 | 6.1 | 0.00 | 0.00 | 0.00 | 86 | 1011.6 |
| 20260509155045 | 78 | 0 | 0.0 | 6.1 | 0.00 | 0.00 | 0.00 | 86 | 1011.7 |
| 20260509154552 | 78 | 26 | 0.9 | 2.6 | 0.00 | 0.00 | 0.00 | 88 | 1011.8 |
| 20260509154047 | 77 | 0 | 0.0 | 4.3 | 0.00 | 0.00 | 0.00 | 90 | 1011.7 |
| 20260509153545 | 77 | 22 | 1.7 | 4.3 | 0.00 | 0.00 | 0.00 | 90 | 1011.6 |
| 20260509153057 | 77 | 24 | 0.0 | 3.5 | 0.00 | 0.00 | 0.00 | 92 | 1011.7 |
| 20260509152545 | 76 | 0 | 0.9 | 3.5 | 0.00 | 0.00 | 0.00 | 92 | 1011.6 |
| 20260509152045 | 76 | 25 | 1.7 | 3.5 | 0.00 | 0.00 | 0.00 | 93 | 1011.8 |
| 20260509151603 | 75 | 15 | 0.9 | 3.5 | 0.00 | 0.00 | 0.00 | 94 | 1011.9 |
| 20260509151045 | 75 | 21 | 0.0 | 2.6 | 0.00 | 0.00 | 0.00 | 94 | 1011.9 |
| 20260509150545 | 75 | 21 | 0.9 | 3.5 | 0.00 | 0.00 | 0.00 | 95 | 1011.7 |
| 20260509150054 | 74 | 21 | 0.0 | 3.5 | 0.00 | 0.00 | 0.00 | 95 | 1011.7 |
| 20260509145545 | 74 | 0 | 0.0 | 2.6 | 0.00 | 0.00 | 0.00 | 95 | 1011.7 |
| 20260509145046 | 74 | 0 | 0.0 | 2.6 | 0.00 | 0.00 | 0.00 | 96 | 1011.7 |
| 20260509144608 | 74 | 0 | 0.9 | 2.6 | 0.00 | 0.00 | 0.00 | 96 | 1011.6 |
| 20260509144045 | 74 | 0 | 0.0 | 1.7 | 0.00 | 0.00 | 0.00 | 96 | 1011.4 |
| 20260509143545 | 74 | 21 | 0.0 | 3.5 | 0.00 | 0.00 | 0.00 | 96 | 1011.4 |
| 20260509143115 | 74 | 21 | 0.0 | 3.5 | 0.00 | 0.00 | 0.00 | 96 | 1011.4 |
| 20260509142544 | 74 | 0 | 0.0 | 3.5 | 0.00 | 0.00 | 0.00 | 96 | 1011.2 |
| 20260509142044 | 73 | 0 | 0.9 | 3.5 | 0.00 | 0.00 | 0.00 | 96 | 1011.3 |
| 20260509141551 | 73 | 21 | 0.0 | 1.7 | 0.00 | 0.00 | 0.00 | 96 | 1011.2 |
| 20260509141045 | 73 | 0 | 0.0 | 3.5 | 0.00 | 0.00 | 0.00 | 97 | 1011.1 |
| 20260509140545 | 73 | 21 | 0.9 | 3.5 | 0.00 | 0.00 | 0.00 | 97 | 1011.1 |
| 20260509135546 | 73 | 0 | 0.0 | 1.7 | 0.00 | 0.00 | 0.00 | 97 | 1011.1 |
| 20260509135048 | 73 | 0 | 0.0 | 1.7 | 0.00 | 0.00 | 0.00 | 97 | 1011.0 |
| 20260509134608 | 73 | 0 | 0.0 | 0.0 | 0.00 | 0.00 | 0.00 | 97 | 1011.1 |
| 20260509134044 | 73 | 0 | 0.0 | 0.0 | 0.00 | 0.00 | 0.00 | 97 | 1011.4 |
| 20260509133551 | 73 | 0 | 0.0 | 0.0 | 0.00 | 0.00 | 0.00 | 97 | 1011.4 |
| 20260509133057 | 73 | 0 | 0.0 | 0.0 | 0.00 | 0.00 | 0.00 | 97 | 1011.5 |
| 20260509132547 | 73 | 0 | 0.0 | 0.0 | 0.00 | 0.00 | 0.00 | 97 | 1011.6 |
| 20260509132051 | 73 | 0 | 0.0 | 0.0 | 0.00 | 0.00 | 0.00 | 97 | 1011.5 |
| 20260509131558 | 73 | 0 | 0.0 | 0.0 | 0.00 | 0.00 | 0.00 | 97 | 1011.7 |
| 20260509131046 | 73 | 0 | 0.0 | 0.0 | 0.00 | 0.00 | 0.00 | 97 | 1011.6 |
| 20260509130547 | 73 | 0 | 0.0 | 0.0 | 0.00 | 0.00 | 0.00 | 97 | 1011.6 |
| 20260509125547 | 72 | 0 | 0.0 | 0.0 | 0.00 | 0.00 | 0.00 | 97 | 1011.3 |
| 20260509125046 | 72 | 0 | 0.0 | 0.0 | 0.00 | 0.00 | 0.00 | 97 | 1011.2 |
| 20260509124556 | 72 | 0 | 0.0 | 0.0 | 0.00 | 0.00 | 0.00 | 97 | 1011.2 |
| 20260509124048 | 72 | 0 | 0.0 | 0.0 | 0.00 | 0.00 | 0.00 | 97 | 1011.0 |
| 20260509123550 | 72 | 0 | 0.0 | 0.0 | 0.00 | 0.00 | 0.00 | 97 | 1011.1 |
| 20260509123111 | 72 | 0 | 0.0 | 0.0 | 0.00 | 0.00 | 0.00 | 97 | 1011.1 |
| 20260509122547 | 72 | 0 | 0.0 | 0.0 | 0.00 | 0.00 | 0.00 | 97 | 1011.2 |
| 20260509122047 | 72 | 0 | 0.0 | 1.7 | 0.00 | 0.00 | 0.00 | 97 | 1011.2 |
| 20260509121610 | 72 | 0 | 0.0 | 1.7 | 0.00 | 0.00 | 0.00 | 97 | 1011.0 |
| 20260509121049 | 72 | 0 | 0.0 | 1.7 | 0.00 | 0.00 | 0.00 | 96 | 1011.1 |
| 20260509120547 | 72 | 0 | 0.0 | 0.0 | 0.00 | 0.00 | 0.00 | 96 | 1011.2 |
| 20260509120115 | 72 | 0 | 0.0 | 0.0 | 0.00 | 0.00 | 0.00 | 96 | 1011.3 |
| 20260509115547 | 72 | 0 | 0.0 | 0.9 | 0.00 | 0.00 | 0.00 | 96 | 1011.1 |
| 20260509115047 | 72 | 0 | 0.0 | 0.9 | 0.00 | 0.00 | 0.00 | 96 | 1011.1 |
| 20260509114601 | 72 | 0 | 0.0 | 0.9 | 0.00 | 0.00 | 0.00 | 96 | 1011.2 |
| 20260509114047 | 72 | 0 | 0.0 | 0.0 | 0.00 | 0.00 | 0.00 | 96 | 1011.4 |
| 20260509113550 | 72 | 0 | 0.0 | 0.9 | 0.00 | 0.00 | 0.00 | 96 | 1011.8 |
| 20260509113050 | 72 | 0 | 0.0 | 0.9 | 0.00 | 0.00 | 0.00 | 96 | 1011.7 |
| 20260509112546 | 72 | 0 | 0.0 | 0.9 | 0.00 | 0.00 | 0.00 | 96 | 1011.9 |
| 20260509112047 | 72 | 0 | 0.0 | 0.0 | 0.00 | 0.00 | 0.00 | 96 | 1012.0 |
| 20260509111600 | 72 | 0 | 0.0 | 0.0 | 0.00 | 0.00 | 0.00 | 96 | 1012.0 |
| 20260509111048 | 72 | 0 | 0.0 | 0.0 | 0.00 | 0.00 | 0.00 | 96 | 1011.9 |
| 20260509110548 | 73 | 0 | 0.0 | 0.0 | 0.00 | 0.00 | 0.00 | 96 | 1011.9 |
| 20260509110053 | 73 | 0 | 0.0 | 0.0 | 0.00 | 0.00 | 0.00 | 96 | 1012.1 |
| 20260509105546 | 73 | 0 | 0.0 | 0.0 | 0.00 | 0.00 | 0.00 | 96 | 1012.1 |
| 20260509105047 | 73 | 0 | 0.0 | 0.0 | 0.00 | 0.00 | 0.00 | 96 | 1012.0 |
| 20260509104551 | 73 | 0 | 0.0 | 0.0 | 0.00 | 0.00 | 0.00 | 96 | 1012.2 |
| 20260509104046 | 73 | 0 | 0.0 | 0.0 | 0.00 | 0.00 | 0.00 | 96 | 1012.2 |
| 20260509103546 | 73 | 0 | 0.0 | 0.0 | 0.00 | 0.00 | 0.00 | 96 | 1012.3 |
| 20260509103103 | 73 | 0 | 0.0 | 0.0 | 0.00 | 0.00 | 0.00 | 96 | 1012.3 |
| 20260509102548 | 73 | 0 | 0.0 | 0.0 | 0.00 | 0.00 | 0.00 | 96 | 1012.3 |
| 20260509102047 | 73 | 0 | 0.0 | 0.0 | 0.00 | 0.00 | 0.00 | 96 | 1012.1 |
| 20260509101617 | 73 | 0 | 0.0 | 0.0 | 0.00 | 0.00 | 0.00 | 96 | 1012.1 |
| 20260509101046 | 73 | 0 | 0.0 | 0.0 | 0.00 | 0.00 | 0.00 | 96 | 1011.8 |
| 20260509100548 | 73 | 0 | 0.0 | 0.0 | 0.00 | 0.00 | 0.00 | 96 | 1011.4 |
| 20260509100051 | 73 | 0 | 0.0 | 0.0 | 0.00 | 0.00 | 0.00 | 96 | 1011.1 |
| 20260509095547 | 73 | 0 | 0.0 | 0.0 | 0.00 | 0.00 | 0.00 | 96 | 1010.8 |
| 20260509095047 | 73 | 0 | 0.0 | 0.0 | 0.00 | 0.00 | 0.00 | 96 | 1010.8 |
| 20260509094559 | 73 | 0 | 0.0 | 0.0 | 0.00 | 0.00 | 0.00 | 95 | 1010.9 |
| 20260509094047 | 73 | 0 | 0.0 | 0.0 | 0.00 | 0.00 | 0.00 | 95 | 1010.9 |
| 20260509093547 | 73 | 0 | 0.0 | 0.0 | 0.00 | 0.00 | 0.00 | 95 | 1010.9 |
| 20260509093054 | 73 | 0 | 0.0 | 0.0 | 0.00 | 0.00 | 0.00 | 95 | 1010.9 |
| 20260509092546 | 73 | 0 | 0.0 | 0.0 | 0.00 | 0.00 | 0.00 | 95 | 1010.8 |
| 20260509092046 | 73 | 0 | 0.0 | 0.0 | 0.00 | 0.00 | 0.00 | 95 | 1010.8 |
| 20260509091603 | 73 | 0 | 0.0 | 0.0 | 0.00 | 0.00 | 0.00 | 95 | 1010.7 |
| 20260509091047 | 73 | 0 | 0.0 | 0.0 | 0.00 | 0.00 | 0.00 | 95 | 1010.7 |
| 20260509090547 | 73 | 0 | 0.0 | 0.0 | 0.00 | 0.00 | 0.00 | 95 | 1010.8 |
| 20260509085546 | 73 | 0 | 0.0 | 0.0 | 0.00 | 0.00 | 0.00 | 94 | 1010.6 |
| 20260509085046 | 73 | 0 | 0.0 | 0.0 | 0.00 | 0.00 | 0.00 | 94 | 1010.7 |
| 20260509084553 | 73 | 0 | 0.0 | 0.0 | 0.00 | 0.00 | 0.00 | 94 | 1010.8 |
| 20260509084049 | 73 | 0 | 0.0 | 0.0 | 0.00 | 0.00 | 0.00 | 94 | 1010.7 |
| 20260509083547 | 73 | 0 | 0.0 | 0.0 | 0.00 | 0.00 | 0.00 | 94 | 1010.8 |
| 20260509083050 | 73 | 0 | 0.0 | 0.0 | 0.00 | 0.00 | 0.00 | 94 | 1010.9 |
| 20260509082547 | 73 | 0 | 0.0 | 0.0 | 0.00 | 0.00 | 0.00 | 94 | 1011.3 |
| 20260509082047 | 73 | 0 | 0.0 | 0.0 | 0.00 | 0.00 | 0.00 | 94 | 1011.3 |
| 20260509081606 | 73 | 0 | 0.0 | 0.0 | 0.00 | 0.00 | 0.00 | 94 | 1011.4 |
| 20260509081047 | 73 | 0 | 0.0 | 0.0 | 0.00 | 0.00 | 0.00 | 93 | 1011.3 |
| 20260509080546 | 73 | 0 | 0.0 | 0.0 | 0.00 | 0.00 | 0.00 | 93 | 1011.1 |
| 20260509080051 | 73 | 0 | 0.0 | 0.0 | 0.00 | 0.00 | 0.00 | 93 | 1011.1 |
| 20260509075548 | 73 | 0 | 0.0 | 0.0 | 0.00 | 0.00 | 0.00 | 93 | 1011.1 |
| 20260509075051 | 73 | 0 | 0.0 | 0.0 | 0.00 | 0.00 | 0.00 | 93 | 1011.0 |
| 20260509074557 | 73 | 0 | 0.0 | 0.0 | 0.00 | 0.00 | 0.00 | 93 | 1011.0 |
| 20260509074046 | 73 | 0 | 0.0 | 0.0 | 0.00 | 0.00 | 0.00 | 93 | 1011.0 |
| 20260509073550 | 73 | 0 | 0.0 | 0.0 | 0.00 | 0.00 | 0.00 | 93 | 1011.1 |
| 20260509073107 | 73 | 0 | 0.0 | 0.0 | 0.00 | 0.00 | 0.00 | 93 | 1011.1 |
| 20260509072550 | 73 | 0 | 0.0 | 0.0 | 0.00 | 0.00 | 0.00 | 93 | 1011.3 |
| 20260509072046 | 73 | 0 | 0.0 | 0.0 | 0.00 | 0.00 | 0.00 | 92 | 1011.2 |
| 20260509071556 | 73 | 0 | 0.0 | 0.0 | 0.00 | 0.00 | 0.00 | 92 | 1011.2 |
| 20260509071048 | 73 | 0 | 0.0 | 0.0 | 0.00 | 0.00 | 0.00 | 92 | 1011.4 |
| 20260509070547 | 73 | 0 | 0.0 | 0.0 | 0.00 | 0.00 | 0.00 | 92 | 1011.4 |
| 20260509070051 | 73 | 0 | 0.0 | 0.9 | 0.00 | 0.00 | 0.00 | 92 | 1011.4 |
| 20260509065547 | 73 | 0 | 0.0 | 1.7 | 0.00 | 0.00 | 0.00 | 92 | 1011.4 |
| 20260509065047 | 73 | 0 | 0.0 | 1.7 | 0.00 | 0.00 | 0.00 | 92 | 1011.4 |
| 20260509064606 | 73 | 0 | 0.0 | 0.9 | 0.00 | 0.00 | 0.00 | 92 | 1011.2 |
| 20260509064048 | 73 | 0 | 0.0 | 0.9 | 0.00 | 0.00 | 0.00 | 92 | 1010.8 |
| 20260509063548 | 73 | 0 | 0.0 | 0.9 | 0.00 | 0.00 | 0.00 | 92 | 1011.0 |
| 20260509063050 | 74 | 0 | 0.0 | 2.6 | 0.00 | 0.00 | 0.00 | 91 | 1011.0 |
| 20260509062548 | 74 | 0 | 0.9 | 2.6 | 0.00 | 0.00 | 0.00 | 91 | 1011.0 |
| 20260509062047 | 74 | 0 | 0.0 | 2.6 | 0.00 | 0.00 | 0.00 | 91 | 1011.1 |
| 20260509061553 | 74 | 22 | 0.0 | 3.5 | 0.00 | 0.00 | 0.00 | 91 | 1011.0 |
| 20260509061048 | 74 | 12 | 0.9 | 3.5 | 0.00 | 0.00 | 0.00 | 91 | 1010.9 |
| 20260509060548 | 74 | 20 | 0.0 | 2.6 | 0.00 | 0.00 | 0.00 | 91 | 1010.8 |
| 20260509060053 | 74 | 35 | 0.0 | 2.6 | 0.00 | 0.00 | 0.00 | 90 | 1010.8 |
| 20260509055548 | 74 | 37 | 0.9 | 5.2 | 0.00 | 0.00 | 0.00 | 90 | 1010.8 |